Location: Prague
(50.0830°N, 14.4670°E)
Time: 05:38:12
(UTC+02:00)

DOVE 4 - Pass Details

Date: 04 April 2023
Orbit: 584 x 791 km, 97.8° (Epoch: 29 May)

Event Time Altitude Azimuth Distance (km) Brightness Sun altitude
Rises 00:22:15 0° 10° (N) 3,135 ? -33.6°
Reaches altitude 10° 00:24:36 10° 7° (N) 2,177 ? -33.7°
Enters shadow 00:27:05 30° 357° (N) 1,235 ? -33.8°
